Location: Larkspur
(54.4391°N, 113.7691°W)
Time: 14:45:01
(UTC+00:00)

METEOR M2 - Pass Details

Date: 11 December 2023
Orbit: 819 x 826 km, 98.4° (Epoch: 02 March)

Event Time Altitude Azimuth Distance (km) Brightness Sun altitude
Rises 00:51:39 0° 180° (S) 3,354 ? -13.5°
Reaches altitude 10° 00:54:04 10° 186° (S) 2,425 ? -13.8°
Maximum altitude 00:59:17 49° 261° (W) 1,059 ? -14.5°
Drops below altitude 10° 01:04:31 10° 336° (NNW) 2,439 ? -15.2°
Sets 01:06:58 0° 342° (NNW) 3,376 ? -15.6°
